• In Lithuania
  • List of Countries
  • For 7 days
  • Water Temperature
  • Satellite Maps
  • Weather Map
  • Weather Widgets
  • user-avatar
    Login

    Hourly Weather Banfora

    Today, 18 October, Wednesday

    Time Temperature Precipitation Wind Pressure Humidity
    00:00 +28°C° 0 mm 1 mps 735 mmHg 42%
    01:00 +27°C° 0 mm 1 mps 734 mmHg 44%
    02:00 +27°C° 0 mm 1 mps 734 mmHg 46%
    03:00 +26°C° 0 mm 1 mps 734 mmHg 48%
    04:00 +26°C° 0 mm 1 mps 734 mmHg 50%
    05:00 +25°C° 0 mm 1 mps 734 mmHg 52%
    06:00 +25°C° 0 mm 1 mps 734 mmHg 53%
    07:00 +27°C° 0 mm 1 mps 734 mmHg 49%
    08:00 +29°C° 0 mm 1 mps 735 mmHg 46%
    09:00 +32°C° 0 mm 1 mps 735 mmHg 42%
    10:00 +34°C° 0 mm 1 mps 735 mmHg 35%
    11:00 +38°C° 0 mm 2 mps 734 mmHg 28%
    12:00 +40°C° 0 mm 2 mps 734 mmHg 20%
    13:00 +40°C° 0 mm 2 mps 733 mmHg 19%
    14:00 +40°C° 0 mm 3 mps 732 mmHg 17%
    15:00 +42°C° 0 mm 3 mps 732 mmHg 15%
    16:00 +38°C° 0 mm 2 mps 732 mmHg 18%
    17:00 +35°C° 0 mm 1 mps 732 mmHg 21%
    18:00 +33°C° 0 mm 1 mps 731 mmHg 24%
    19:00 +32°C° 0 mm 1 mps 732 mmHg 24%
    20:00 +29°C° 0 mm 0 mps 732 mmHg 25%
    21:00 +27°C° 0 mm 0 mps 733 mmHg 26%
    22:00 +29°C° 0 mm 1 mps 733 mmHg 28%
    23:00 +28°C° 0 mm 1 mps 733 mmHg 29%

    Tomorrow, 19 October, Thursday

    Time Temperature Precipitation Wind Pressure Humidity
    00:00 +28°C° 0 mm 1 mps 733 mmHg 31%
    01:00 +27°C° 0 mm 1 mps 733 mmHg 36%
    02:00 +26°C° 0 mm 1 mps 733 mmHg 41%
    03:00 +26°C° 0 mm 1 mps 733 mmHg 46%
    04:00 +25°C° 0 mm 1 mps 733 mmHg 52%
    05:00 +25°C° 0 mm 1 mps 733 mmHg 59%
    06:00 +25°C° 0 mm 1 mps 734 mmHg 65%
    07:00 +27°C° 0 mm 2 mps 734 mmHg 63%
    08:00 +29°C° 0 mm 2 mps 735 mmHg 62%
    09:00 +31°C° 0 mm 3 mps 735 mmHg 60%
    10:00 +34°C° 0 mm 2 mps 735 mmHg 51%
    11:00 +36°C° 0 mm 2 mps 735 mmHg 42%
    12:00 +39°C° 0 mm 1 mps 734 mmHg 33%
    13:00 +39°C° 0 mm 2 mps 734 mmHg 29%
    14:00 +40°C° 0 mm 2 mps 733 mmHg 25%
    15:00 +40°C° 0 mm 2 mps 732 mmHg 21%
    16:00 +37°C° 0 mm 1 mps 732 mmHg 25%
    17:00 +35°C° 0 mm 1 mps 732 mmHg 28%
    18:00 +31°C° 0 mm 0 mps 732 mmHg 31%
    19:00 +32°C° 0 mm 1 mps 732 mmHg 33%
    20:00 +31°C° 0 mm 1 mps 733 mmHg 35%
    21:00 +30°C° 0 mm 1 mps 734 mmHg 37%
    22:00 +29°C° 0 mm 1 mps 734 mmHg 41%
    23:00 +29°C° 0 mm 1 mps 734 mmHg 45%

    Day after tomorrow, 20 October, Friday

    Time Temperature Precipitation Wind Pressure Humidity
    00:00 +28°C° 0 mm 2 mps 733 mmHg 49%
    01:00 +27°C° 0 mm 2 mps 733 mmHg 55%
    02:00 +27°C° 0 mm 2 mps 733 mmHg 62%
    03:00 +26°C° 0 mm 2 mps 732 mmHg 68%
    04:00 +26°C° 0 mm 1 mps 732 mmHg 72%
    05:00 +25°C° 0 mm 1 mps 733 mmHg 77%
    06:00 +25°C° 0 mm 1 mps 733 mmHg 81%
    07:00 +27°C° 0 mm 2 mps 733 mmHg 74%
    08:00 +29°C° 0 mm 2 mps 734 mmHg 68%
    09:00 +31°C° 0 mm 2 mps 735 mmHg 62%
    10:00 +35°C° 0 mm 2 mps 734 mmHg 51%
    11:00 +37°C° 0 mm 1 mps 734 mmHg 41%
    12:00 +38°C° 0 mm 0 mps 734 mmHg 31%
    13:00 +41°C° 0 mm 1 mps 733 mmHg 27%
    14:00 +41°C° 0 mm 2 mps 732 mmHg 24%
    15:00 +40°C° 0 mm 2 mps 732 mmHg 21%
    16:00 +38°C° 0 mm 2 mps 732 mmHg 23%
    17:00 +35°C° 0 mm 1 mps 732 mmHg 26%
    18:00 +33°C° 0 mm 1 mps 732 mmHg 29%
    19:00 +32°C° 0 mm 1 mps 732 mmHg 30%
    20:00 +31°C° 0 mm 1 mps 733 mmHg 32%
    21:00 +28°C° 0 mm 0 mps 734 mmHg 33%
    22:00 +30°C° 0 mm 1 mps 734 mmHg 36%
    23:00 +29°C° 0 mm 1 mps 734 mmHg 38%

    21 October, Saturday

    Time Temperature Precipitation Wind Pressure Humidity
    00:00 +29°C° 0 mm 1 mps 734 mmHg 40%
    01:00 +28°C° 0 mm 1 mps 733 mmHg 47%
    02:00 +27°C° 0 mm 1 mps 733 mmHg 53%
    03:00 +27°C° 0 mm 1 mps 732 mmHg 60%
    04:00 +26°C° 0 mm 1 mps 733 mmHg 65%
    05:00 +26°C° 0 mm 1 mps 733 mmHg 70%
    06:00 +26°C° 0 mm 1 mps 733 mmHg 75%
    07:00 +28°C° 0 mm 2 mps 734 mmHg 70%
    08:00 +29°C° 0 mm 2 mps 734 mmHg 65%
    09:00 +31°C° 0 mm 3 mps 735 mmHg 60%
    10:00 +35°C° 0 mm 2 mps 734 mmHg 51%
    11:00 +37°C° 0 mm 2 mps 734 mmHg 42%
    12:00 +40°C° 0 mm 1 mps 734 mmHg 33%
    13:00 +40°C° 0 mm 1 mps 733 mmHg 30%
    14:00 +40°C° 0 mm 1 mps 732 mmHg 26%
    15:00 +41°C° 0 mm 1 mps 732 mmHg 23%
    16:00 +39°C° 0 mm 1 mps 732 mmHg 25%
    17:00 +36°C° 0 mm 1 mps 732 mmHg 28%
    18:00 +35°C° 0 mm 1 mps 732 mmHg 31%
    19:00 +34°C° 0 mm 1 mps 732 mmHg 33%
    20:00 +31°C° 0 mm 0 mps 733 mmHg 35%
    21:00 +30°C° 0 mm 0 mps 733 mmHg 37%
    22:00 +29°C° 0 mm 0 mps 733 mmHg 38%
    23:00 +31°C° 0 mm 1 mps 733 mmHg 40%

    22 October, Sunday

    Time Temperature Precipitation Wind Pressure Humidity
    00:00 +30°C° 0 mm 1 mps 733 mmHg 42%
    01:00 +29°C° 0 mm 1 mps 733 mmHg 46%
    02:00 +29°C° 0 mm 2 mps 733 mmHg 51%
    03:00 +28°C° 0 mm 2 mps 732 mmHg 55%
    04:00 +28°C° 0 mm 2 mps 733 mmHg 61%
    05:00 +27°C° 0 mm 2 mps 733 mmHg 67%
    06:00 +26°C° 0 mm 1 mps 733 mmHg 73%
    07:00 +28°C° 0 mm 2 mps 734 mmHg 69%
    08:00 +30°C° 0 mm 2 mps 734 mmHg 64%
    09:00 +33°C° 0 mm 3 mps 734 mmHg 59%
    10:00 +35°C° 0 mm 3 mps 734 mmHg 51%
    11:00 +37°C° 0 mm 2 mps 733 mmHg 44%
    12:00 +39°C° 0 mm 2 mps 733 mmHg 36%
    13:00 +40°C° 0 mm 1 mps 732 mmHg 32%
    14:00 +41°C° 0 mm 1 mps 732 mmHg 28%
    15:00 +39°C° 0 mm 0 mps 731 mmHg 25%
    16:00 +37°C° 0 mm 0 mps 731 mmHg 28%
    17:00 +37°C° 0 mm 1 mps 731 mmHg 32%
    18:00 +34°C° 0 mm 1 mps 731 mmHg 35%
    19:00 +34°C° 0 mm 1 mps 732 mmHg 38%
    20:00 +33°C° 0 mm 1 mps 732 mmHg 41%
    21:00 +32°C° 0 mm 2 mps 733 mmHg 44%
    22:00 +31°C° 0 mm 2 mps 733 mmHg 48%
    23:00 +30°C° 0 mm 2 mps 733 mmHg 51%

    23 October, Monday

    Time Temperature Precipitation Wind Pressure Humidity
    00:00 +30°C° 0 mm 2 mps 733 mmHg 55%
    01:00 +29°C° 0 mm 2 mps 732 mmHg 60%
    02:00 +29°C° 0 mm 3 mps 732 mmHg 64%
    03:00 +29°C° 0 mm 3 mps 732 mmHg 69%
    04:00 +28°C° 0 mm 3 mps 732 mmHg 73%
    05:00 +28°C° 0 mm 3 mps 733 mmHg 76%
    06:00 +27°C° 0 mm 2 mps 733 mmHg 79%
    07:00 +28°C° 0 mm 3 mps 733 mmHg 74%
    08:00 +30°C° 0 mm 3 mps 734 mmHg 69%
    09:00 +31°C° 0 mm 3 mps 734 mmHg 64%
    10:00 +34°C° 0 mm 3 mps 734 mmHg 57%
    11:00 +36°C° 0 mm 3 mps 733 mmHg 49%
    12:00 +38°C° 0 mm 3 mps 733 mmHg 42%
    13:00 +39°C° 0 mm 2 mps 732 mmHg 38%
    14:00 +39°C° 0 mm 2 mps 731 mmHg 35%
    15:00 +40°C° 0 mm 1 mps 731 mmHg 31%
    16:00 +37°C° 0 mm 1 mps 731 mmHg 35%
    17:00 +36°C° 0 mm 1 mps 731 mmHg 38%
    18:00 +34°C° 0 mm 1 mps 732 mmHg 42%
    19:00 +33°C° 0.5 mm 1 mps 732 mmHg 46%
    20:00 +32°C° 0.5 mm 2 mps 732 mmHg 50%
    21:00 +31°C° 0.5 mm 2 mps 733 mmHg 54%
    22:00 +30°C° 0.3 mm 2 mps 733 mmHg 60%
    23:00 +29°C° 0.3 mm 2 mps 733 mmHg 65%
    Show more